Grayling, MI

2:15 AM EDT on July 26, 2017 (GMT -0400)
Grayling

Weather History for KGOV - November, 2013

Change the Weather History Date:

Sunday, November 10, 2013

  Actual Average (KHTL) Record (KHTL)
Temperature  
Mean Temperature 36 °F -  
Max Temperature 39 °F 44 °F 71 °F (1931)
Min Temperature 33 °F 30 °F 8 °F (1933)
Degree Days  
Heating Degree Days 29    
Moisture  
Dew Point 33 °F    
Average Humidity 86    
Maximum Humidity 98    
Minimum Humidity 70    
Precipitation  
Precipitation 0.00 in - - ()
Sea Level Pressure  
Sea Level Pressure 30.03 in    
Wind  
Wind Speed 11 mph (West)    
Max Wind Speed 21 mph    
Max Gust Speed 33 mph    
Visibility 8 miles    
Events Rain , Snow    
Averages and records for this station are not official NWS values.
T = Trace of Precipitation, MM = Missing Value Source: NWS Daily Summary

Daily Weather History Graph

Daily Weather History Graph

Search for Another Location

Airport or City:

Trip Planner

Search our weather history database for the weather conditions in past years. The results will help you decide how hot, cold, wet, or windy it might be!

Date:

Astronomy

Nov. 10, 2013 Rise Set
Actual Time 7:29 AM EST 5:15 PM EST
Civil Twilight 6:58 AM EST 5:47 PM EST
Nautical Twilight 6:23 AM EST 6:22 PM EST
Astronomical Twilight 5:48 AM EST 6:56 PM EST
Moon 1:36 PM EST (11/10) No Moon Set
Length of Visible Light 10h 48m
Length of Day
9h 46m
First Quarter, 55% of the Moon is Illuminated
Nov 10
First Quarter
Nov 17
Full
Nov 25
Last Quarter
Dec 2
New
Dec 9
First Quarter

Hourly Weather History & Observations

Time (EST) Temp. Windchill Dew Point Humidity Pressure Visibility Wind Dir Wind Speed Gust Speed Precip Events Conditions
12:15 AM 38.5 °F 30.7 °F 31.6 °F 76% 29.79 in 10.0 mi WSW 12.7 mph 21.9 mph N/A   Overcast
12:35 AM 38.3 °F 30.9 °F 31.5 °F 76% 29.80 in 10.0 mi West 11.5 mph 19.6 mph N/A   Overcast
12:55 AM 38.8 °F 32.1 °F 32.0 °F 76% 29.80 in 10.0 mi WSW 10.4 mph 19.6 mph N/A   Overcast
1:15 AM 39.0 °F 31.4 °F 32.0 °F 76% 29.80 in 10.0 mi West 12.7 mph 21.9 mph N/A   Overcast
1:35 AM 39.2 °F 32.0 °F 32.0 °F 75% 29.80 in 10.0 mi West 11.5 mph 24.2 mph N/A   Overcast
1:55 AM 39.2 °F 31.6 °F 31.8 °F 75% 29.80 in 10.0 mi West 12.7 mph 19.6 mph N/A   Overcast
2:15 AM 38.3 °F 30.1 °F 33.1 °F 81% 29.81 in 5.0 mi WNW 13.8 mph 21.9 mph N/A   Unknown
2:34 AM 37.9 °F 30.0 °F 35.2 °F 90% 29.81 in 3.0 mi West 12.7 mph 25.3 mph N/A Rain Light Rain
2:55 AM 37.2 °F 28.3 °F 35.4 °F 93% 29.82 in 3.0 mi West 15.0 mph 21.9 mph N/A Rain Light Rain
3:15 AM 35.8 °F 28.3 °F 34.5 °F 95% 29.82 in 10.0 mi West 10.4 mph - N/A   Overcast
3:35 AM 37.9 °F 30.9 °F 36.0 °F 93% 29.82 in 10.0 mi WSW 10.4 mph - N/A   Overcast
3:55 AM 38.3 °F 31.4 °F 36.1 °F 92% 29.83 in 10.0 mi West 10.4 mph 16.1 mph N/A   Light Drizzle
4:15 AM 36.5 °F 29.7 °F 34.3 °F 92% 29.83 in 7.0 mi West 9.2 mph 17.3 mph N/A Rain Light Rain
4:35 AM 37.4 °F 29.8 °F 35.1 °F 91% 29.83 in 10.0 mi West 11.5 mph - N/A Rain Light Rain
4:55 AM 38.3 °F 30.1 °F 36.0 °F 91% 29.84 in 7.0 mi West 13.8 mph 20.7 mph N/A Rain Light Rain
5:15 AM 38.3 °F 30.5 °F 36.3 °F 93% 29.86 in 5.0 mi West 12.7 mph 19.6 mph N/A Rain Light Rain
5:35 AM 36.0 °F 27.1 °F 35.1 °F 97% 29.87 in 5.0 mi West 13.8 mph 19.6 mph N/A Rain Light Rain
5:55 AM 36.3 °F 27.5 °F 35.4 °F 97% 29.87 in 7.0 mi West 13.8 mph 20.7 mph N/A Rain Light Rain
6:15 AM 36.5 °F 27.8 °F 35.8 °F 97% 29.89 in 5.0 mi West 13.8 mph 19.6 mph N/A Rain Light Rain
6:35 AM 36.5 °F 27.0 °F 36.0 °F 98% 29.90 in 7.0 mi West 16.1 mph 21.9 mph N/A Rain Light Rain
6:54 AM 38.1 °F 30.7 °F 36.5 °F 94% 29.92 in 10.0 mi WNW 11.5 mph 25.3 mph N/A Rain Light Rain
7:15 AM 35.8 °F 27.8 °F 34.3 °F 94% 29.93 in 5.0 mi WNW 11.5 mph 24.2 mph N/A Rain Light Rain
7:35 AM 35.8 °F 27.3 °F 35.1 °F 97% 29.95 in 4.0 mi WNW 12.7 mph 19.6 mph N/A Snow Light Snow
7:55 AM 35.8 °F 25.7 °F 35.1 °F 97% 29.96 in 4.0 mi WNW 17.3 mph 23.0 mph N/A Snow Light Snow
8:15 AM 35.8 °F 27.8 °F 34.7 °F 96% 29.98 in 7.0 mi WNW 11.5 mph 18.4 mph N/A Snow Light Snow
8:34 AM 36.0 °F 26.3 °F 34.3 °F 94% 29.99 in 3.0 mi WNW 16.1 mph 31.1 mph N/A Rain Light Rain
8:55 AM 35.8 °F 28.3 °F 35.2 °F 98% 30.01 in 4.0 mi WNW 10.4 mph 21.9 mph N/A Snow Light Snow
9:15 AM 35.8 °F 28.8 °F 35.1 °F 97% 30.01 in 10.0 mi NW 9.2 mph 20.7 mph N/A   Overcast
9:35 AM 35.8 °F 26.1 °F 34.7 °F 96% 30.02 in 10.0 mi NW 16.1 mph 25.3 mph N/A   Overcast
9:55 AM 36.5 °F 26.7 °F 34.7 °F 93% 30.04 in 10.0 mi WNW 17.3 mph 24.2 mph N/A   Overcast
10:15 AM 35.8 °F 24.8 °F 34.5 °F 95% 30.06 in 10.0 mi NW 20.7 mph 27.6 mph N/A   Mostly Cloudy
10:35 AM 35.8 °F 26.1 °F 34.9 °F 97% 30.07 in 3.0 mi WNW 16.1 mph 27.6 mph N/A Snow Light Snow
10:54 AM 35.8 °F 25.7 °F 35.1 °F 97% 30.08 in 4.0 mi NW 17.3 mph 27.6 mph N/A Snow Light Snow
11:15 AM 36.9 °F 27.8 °F 35.6 °F 95% 30.09 in 10.0 mi WNW 15.0 mph 25.3 mph N/A   Mostly Cloudy
11:35 AM 38.3 °F 30.9 °F 36.1 °F 92% 30.10 in 10.0 mi WNW 11.5 mph 21.9 mph N/A   Mostly Cloudy
11:55 AM 38.3 °F 28.4 °F 33.4 °F 83% 30.10 in 10.0 mi NW 19.6 mph 33.4 mph N/A   Mostly Cloudy
12:15 PM 38.8 °F 30.8 °F 33.6 °F 82% 30.11 in 10.0 mi NW 13.8 mph 25.3 mph N/A   Mostly Cloudy
12:34 PM 38.3 °F 30.9 °F 32.5 °F 80% 30.11 in 10.0 mi WNW 11.5 mph 29.9 mph N/A   Overcast
12:55 PM 37.8 °F 28.0 °F 32.5 °F 81% 30.12 in 4.0 mi NW 18.4 mph 29.9 mph N/A Snow Light Snow
1:14 PM 37.0 °F 28.5 °F 33.4 °F 87% 30.13 in 10.0 mi WNW 13.8 mph 24.2 mph N/A   Mostly Cloudy
1:35 PM 35.8 °F 27.8 °F 34.5 °F 95% 30.13 in 3.0 mi WNW 11.5 mph 17.3 mph N/A Snow Light Snow
1:55 PM 37.6 °F 29.1 °F 35.4 °F 92% 30.14 in 10.0 mi NW 13.8 mph 19.6 mph N/A   Overcast
2:15 PM 37.4 °F 30.8 °F 32.9 °F 84% 30.14 in 10.0 mi WNW 9.2 mph 17.3 mph N/A   Overcast
2:35 PM 38.3 °F 32.5 °F 32.5 °F 80% 30.15 in 10.0 mi WNW 8.1 mph 16.1 mph N/A   Overcast
2:54 PM 38.3 °F 30.9 °F 32.0 °F 78% 30.15 in 10.0 mi WNW 11.5 mph 17.3 mph N/A   Overcast
3:15 PM 37.4 °F 30.3 °F 33.1 °F 84% 30.15 in 10.0 mi WNW 10.4 mph - N/A   Overcast
3:35 PM 38.3 °F 31.9 °F 32.0 °F 78% 30.16 in 10.0 mi WNW 9.2 mph - N/A   Mostly Cloudy
3:55 PM 38.3 °F 30.5 °F 31.5 °F 76% 30.16 in 10.0 mi WNW 12.7 mph 17.3 mph N/A   Overcast
4:15 PM 38.3 °F 31.4 °F 32.0 °F 78% 30.17 in 10.0 mi WNW 10.4 mph 20.7 mph N/A   Overcast
4:35 PM 38.3 °F 30.9 °F 31.6 °F 77% 30.17 in 10.0 mi WNW 11.5 mph 17.3 mph N/A   Overcast
4:55 PM 38.3 °F 31.4 °F 30.0 °F 72% 30.17 in 10.0 mi West 10.4 mph 17.3 mph N/A   Overcast
5:14 PM 37.0 °F 31.6 °F 28.2 °F 70% 30.17 in 10.0 mi West 6.9 mph 17.3 mph N/A   Overcast
5:35 PM 35.8 °F 30.1 °F 27.9 °F 73% 30.18 in 10.0 mi West 6.9 mph - N/A   Scattered Clouds
5:55 PM 34.2 °F 31.2 °F 27.1 °F 75% 30.18 in 10.0 mi WSW 3.5 mph - N/A   Clear
6:15 PM 34.2 °F - 27.5 °F 77% 30.18 in 10.0 mi Calm Calm - N/A   Scattered Clouds
6:35 PM 33.4 °F - 27.7 °F 79% 30.18 in 10.0 mi Calm Calm - N/A   Mostly Cloudy
6:54 PM 33.4 °F - 28.6 °F 82% 30.18 in 10.0 mi Calm Calm - N/A   Overcast
7:15 PM 34.7 °F - 28.8 °F 79% 30.18 in 10.0 mi Calm Calm - N/A   Overcast
7:35 PM 34.5 °F - 28.8 °F 79% 30.18 in 10.0 mi Calm Calm - N/A   Mostly Cloudy
7:55 PM 34.7 °F 31.8 °F 29.3 °F 81% 30.17 in 10.0 mi SW 3.5 mph - N/A   Mostly Cloudy
8:15 PM 34.7 °F - 29.3 °F 81% 30.17 in 10.0 mi Calm Calm - N/A   Overcast
8:35 PM 34.5 °F 31.6 °F 29.7 °F 82% 30.16 in 10.0 mi SSW 3.5 mph - N/A   Scattered Clouds
8:55 PM 35.8 °F 30.9 °F 30.0 °F 80% 30.15 in 10.0 mi SSW 5.8 mph - N/A   Clear
9:14 PM 35.8 °F 30.9 °F 30.0 °F 80% 30.14 in 10.0 mi SW 5.8 mph - N/A   Clear
9:35 PM 35.8 °F 29.4 °F 30.0 °F 80% 30.15 in 10.0 mi SW 8.1 mph - N/A   Clear
9:55 PM 35.6 °F 28.6 °F 30.2 °F 81% 30.14 in 10.0 mi SW 9.2 mph - N/A   Clear
10:15 PM 35.6 °F 29.2 °F 30.2 °F 81% 30.13 in 10.0 mi SW 8.1 mph - N/A   Scattered Clouds
10:35 PM 35.8 °F 29.4 °F 30.2 °F 80% 30.12 in 10.0 mi SSW 8.1 mph - N/A   Scattered Clouds
10:54 PM 35.8 °F 30.9 °F 30.0 °F 80% 30.11 in 10.0 mi SW 5.8 mph - N/A   Scattered Clouds
11:15 PM 35.8 °F 28.8 °F 30.4 °F 81% 30.11 in 10.0 mi SW 9.2 mph 16.1 mph N/A   Mostly Cloudy
11:34 PM 35.8 °F 30.1 °F 30.7 °F 82% 30.10 in 10.0 mi SSW 6.9 mph - N/A   Overcast
11:55 PM 35.8 °F 29.4 °F 30.6 °F 81% 30.09 in 10.0 mi SW 8.1 mph - N/A   Overcast